Theta_e
311 311 310 310 310 310 310 310 310 311 310 311 311 312 313 315 315 314 316 317 318 316 316 316 317 316 318 320 320 320 314 316 319 321 320 318 317 317 318 317 317 318 318 318 318
310 310 311 311 312 312 313 313 312 311 310 310 310 310 311 312 314 315 316 316 317 316 316 317 318 318 318 320 320 319 316 319 319 318 318 317 316 317 316 316 316 317 317 317 316
311 311 311 312 312 313 313 313 313 313 313 312 311 310 310 311 312 314 317 317 316 316 315 317 318 318 318 320 320 317 315 317 319 319 318 317 316 317 315 313 316 317 317 317 316
312 312 312 312 312 312 313 313 313 313 313 313 312 311 310 310 310 318 317 316 317 316 314 316 317 318 317 317 321 318 319 319 319 319 318 316 316 317 317 317 318 318 317 317 317
312 312 312 312 312 312 312 312 312 312 312 312 312 312 310 311 311 312 313 315 315 315 315 314 317 318 317 318 319 318 317 319 319 318 318 317 316 314 316 317 317 317 317 317 316
312 312 312 312 312 312 312 313 313 313 313 313 312 311 310 312 314 313 314 315 315 315 314 313 315 317 318 317 316 317 317 316 317 318 316 316 314 315 317 317 317 317 317 317 317
308 308 309 310 312 313 313 313 314 314 314 314 313 311 310 313 314 314 313 313 313 314 314 313 313 315 316 317 317 316 315 312 314 316 314 316 313 313 318 316 317 318 317 317 317
312 312 311 309 308 308 309 312 313 314 315 314 312 310 311 314 313 314 314 314 313 313 313 313 314 313 315 316 315 314 314 314 314 313 315 315 314 313 317 316 316 316 317 317 317
313 312 312 312 312 311 309 308 307 308 311 312 311 310 312 314 314 315 315 313 313 313 312 312 312 313 315 312 311 312 312 313 314 314 312 312 313 312 316 316 316 316 317 317 317
313 313 312 312 312 312 313 312 310 307 308 310 311 314 314 315 314 314 314 313 313 312 311 311 312 311 311 310 312 311 312 313 313 313 313 312 313 312 315 314 315 316 315 315 316
315 315 313 314 312 312 312 312 310 312 312 313 314 313 315 315 314 314 314 312 312 312 310 312 310 311 312 312 311 312 311 311 314 313 314 315 313 313 314 313 312 315 316 317 317
319 319 318 320 317 311 311 310 309 310 308 308 308 310 312 314 315 314 313 312 312 311 311 313 312 311 312 311 312 311 312 312 312 311 311 312 313 313 311 313 315 313 315 316 315
321 320 321 322 321 317 311 310 307 306 310 307 310 309 309 309 313 313 313 312 310 310 310 312 312 313 313 313 313 313 312 313 312 312 310 310 311 312 312 312 315 315 316 316 315
322 323 322 323 321 322 315 310 308 308 306 309 309 310 310 311 310 312 312 312 311 311 310 311 312 312 312 312 312 313 311 312 312 312 313 310 314 311 312 311 311 313 316 316 316
325 322 323 322 322 322 317 309 309 308 307 311 310 310 311 310 309 310 310 311 310 311 310 311 312 310 311 312 311 313 312 312 313 312 312 314 313 314 311 311 311 312 314 316 316
325 324 322 323 322 322 321 309 309 306 307 310 309 309 310 310 309 308 309 309 309 309 309 308 311 312 311 310 310 310 311 311 310 309 313 311 312 312 310 311 311 311 314 316 317
325 325 323 323 321 321 322 310 311 308 308 312 310 310 310 311 310 307 307 306 307 309 307 309 309 308 310 311 309 310 310 311 311 310 314 310 310 314 311 310 310 311 315 316 316
321 322 323 323 321 322 320 312 318 317 311 311 311 310 310 310 311 308 308 307 305 308 309 310 310 308 308 311 310 308 311 311 310 313 314 308 310 311 310 311 314 315 317 316 312
319 319 321 322 321 319 315 316 322 319 318 319 320 313 311 310 309 309 307 307 307 306 309 310 310 309 308 309 310 309 311 310 311 297 308 313 311 310 310 309 307 308 308 311 313
315 317 317 317 319 317 311 320 319 317 319 318 322 321 320 314 310 311 310 309 310 307 309 311 311 310 307 307 307 309 308 311 310 310 308 313 310 313 312 313 312 306 306 310 312
311 314 316 317 318 312 312 314 314 316 317 318 320 321 319 320 318 314 312 311 310 309 309 308 311 312 306 307 309 306 309 309 309 310 314 314 313 308 310 311 311 306 308 310 311
310 314 315 317 313 312 315 314 314 314 315 316 311 316 318 318 318 319 320 316 311 310 312 310 311 312 311 307 306 309 309 310 312 312 309 312 313 312 309 307 308 308 310 311 311
310 312 313 314 315 315 310 312 313 313 314 315 315 314 315 316 316 315 315 314 314 313 313 312 311 315 314 312 306 308 307 308 309 309 312 314 313 312 311 311 308 307 309 310 312
305 309 310 309 312 314 314 314 314 313 312 313 314 313 314 315 315 316 316 313 314 313 312 312 310 313 317 315 313 312 311 309 310 312 313 313 312 311 311 311 311 311 311 311 311
301 304 307 307 310 311 312 312 313 314 312 313 313 313 314 315 316 315 314 314 313 311 311 312 311 311 312 313 313 314 314 313 312 312 314 314 313 311 310 310 310 310 311 310 310
300 301 302 301 303 306 309 310 311 311 310 311 312 312 312 314 314 313 312 313 313 309 311 310 314 314 314 312 312 313 313 312 312 312 313 312 313 313 313 313 312 313 312 311 310
296 297 298 299 299 301 302 305 306 305 304 305 304 304 304 305 305 302 303 304 307 312 312 312 311 314 316 313 312 313 313 313 312 312 312 313 312 311 312 312 312 312 312 311 311
Wind_Speed
8 8 8 9 9 9 9 9 9 10 10 10 10 9 9 9 10 12 11 7 4 4 4 2 0 2 4 3 6 2 2 4 5 2 2 6 4 5 5 6 8 13 11 10 9
8 8 8 9 9 9 9 10 10 10 10 11 11 10 10 11 12 17 13 11 8 7 6 3 1 2 2 4 4 4 3 6 3 3 3 3 7 7 5 8 10 15 20 21 18
11 11 10 10 10 10 10 10 10 11 11 11 12 11 11 10 14 7 5 15 14 10 8 5 5 6 5 6 7 5 6 4 5 7 5 3 4 8 9 7 18 24 29 27 26
14 14 13 13 12 12 12 12 11 12 12 12 12 12 11 10 5 2 4 5 15 14 11 7 6 6 4 5 12 4 12 20 14 12 6 3 6 7 18 26 12 13 18 30 31
17 17 17 16 16 15 14 13 13 13 13 13 13 13 12 8 16 18 17 13 11 16 14 11 9 7 4 5 5 5 6 15 14 14 16 13 18 12 25 27 26 29 29 22 28
21 20 19 19 19 18 17 16 16 15 14 14 15 14 12 9 14 12 12 13 14 17 16 15 8 9 7 7 4 4 9 13 18 25 16 10 8 7 29 22 24 32 31 32 34
19 20 22 22 22 22 20 18 18 18 17 16 16 15 16 24 20 19 17 15 15 17 19 16 16 12 2 4 6 6 8 9 18 23 7 11 10 14 35 27 21 24 28 36 38
18 19 20 20 21 23 24 23 23 22 20 19 17 13 13 18 19 20 21 20 17 18 19 18 15 13 9 5 4 2 2 5 6 8 5 12 15 10 15 20 29 33 32 29 33
17 18 19 20 20 22 22 21 23 24 23 21 16 10 9 15 17 18 19 18 15 17 17 15 12 8 4 4 4 3 6 8 10 11 6 6 11 11 17 23 31 32 33 35 34
16 16 17 18 19 20 20 20 20 19 19 14 12 5 17 14 13 12 14 16 12 11 8 9 9 3 1 5 9 7 6 6 9 5 4 6 18 14 22 11 20 25 26 31 39
15 15 13 15 17 18 18 15 7 3 7 9 5 10 7 12 13 12 13 16 9 7 7 9 4 10 22 17 6 5 6 8 18 10 10 17 18 20 28 23 25 38 42 44 49
14 16 15 15 14 13 13 7 7 7 11 19 25 27 27 27 12 15 14 13 11 8 5 2 11 18 3 9 9 11 14 15 15 11 10 15 21 17 11 18 28 30 41 48 47
14 15 17 16 13 15 14 10 9 10 5 11 29 25 35 31 22 23 23 13 7 6 9 18 10 19 12 9 10 19 14 18 18 10 6 9 10 13 11 20 31 37 47 50 44
17 15 17 14 7 15 9 13 11 6 3 7 6 7 13 11 5 16 21 17 7 13 9 11 14 12 7 7 12 21 10 13 12 3 13 4 14 9 7 13 11 26 39 44 42
20 17 17 17 13 11 11 9 7 5 6 5 4 4 9 9 4 4 22 10 6 5 6 10 4 8 12 24 11 19 3 5 2 5 5 6 7 4 9 9 11 16 35 44 42
23 20 19 19 16 10 8 8 2 4 8 5 4 4 4 2 1 2 3 4 2 2 6 10 1 4 8 2 6 3 1 0 3 3 12 8 9 4 7 11 7 15 32 35 33
21 19 21 20 16 12 6 1 3 5 6 4 4 4 1 4 3 5 5 5 6 1 5 2 13 7 6 4 2 2 5 4 4 1 13 12 11 22 7 7 11 12 26 31 33
20 20 20 17 19 22 11 3 8 6 8 2 3 3 7 7 6 5 3 3 6 1 3 3 14 13 8 18 11 10 11 7 7 11 22 3 8 6 12 15 26 33 33 34 21
18 19 21 20 17 20 9 3 8 7 7 4 8 5 5 6 8 8 9 7 10 17 11 7 11 1 2 2 8 4 6 9 1 2 2 11 13 8 4 10 10 21 17 20 22
20 17 23 17 14 21 4 15 7 7 4 3 7 8 10 5 2 2 6 4 6 15 19 6 11 8 4 4 1 6 2 2 2 3 7 17 4 15 14 22 20 6 12 18 18
16 9 10 9 15 13 6 8 4 12 14 7 15 15 11 11 10 8 7 14 4 4 3 7 7 19 5 6 9 1 4 4 2 5 14 18 15 6 5 3 3 7 12 14 13
7 4 12 18 8 6 10 5 9 15 14 7 4 8 13 13 15 17 18 19 10 5 3 4 4 5 9 6 4 4 8 11 10 11 5 7 15 22 12 9 5 9 9 12 7
7 10 13 19 7 10 4 7 7 13 12 4 6 9 12 15 10 15 13 17 25 13 4 5 4 5 9 13 4 7 6 7 6 2 13 15 15 23 22 23 15 10 14 24 40
4 2 9 17 20 15 16 18 17 22 18 17 14 10 10 14 17 14 19 10 23 22 22 14 9 12 17 17 10 10 11 11 15 14 24 21 30 28 34 29 25 31 42 44 44
7 4 4 4 11 12 12 10 19 20 15 15 8 26 25 24 24 25 25 26 20 16 9 11 12 19 26 30 29 29 29 28 26 23 19 26 22 26 32 22 26 38 41 39 36
4 4 7 8 11 3 8 14 18 19 16 24 18 18 17 19 22 25 22 19 21 5 16 9 15 17 23 26 29 31 31 28 30 31 27 32 32 35 37 48 38 46 37 32 34
6 14 8 7 2 2 8 10 10 4 5 3 11 10 12 16 17 30 33 29 24 17 17 12 8 13 28 22 24 24 34 35 32 27 23 28 35 36 32 27 30 44 37 35 39
Wind_Direction
334 340 344 351 354 357 358 357 355 354 353 351 347 338 322 299 281 280 274 256 267 274 289 280 309 159 178 233 233 265 49 259 261 268 216 171 160 194 233 233 205 206 238 234 226
318 325 330 334 339 342 344 345 344 343 342 341 339 335 324 313 296 275 261 258 257 257 261 242 115 165 215 237 205 169 158 236 232 290 282 209 199 196 205 233 234 232 237 246 241
310 314 317 318 322 325 326 329 331 331 331 332 331 330 324 313 303 273 271 244 239 243 247 245 207 212 235 225 205 204 213 219 288 307 302 276 248 239 201 235 229 235 239 239 242
302 304 306 308 310 311 314 317 319 320 322 321 320 320 318 308 277 212 322 288 232 235 232 222 189 182 226 222 217 229 247 256 279 280 268 264 275 258 236 246 260 256 253 247 238
296 299 301 303 303 306 307 308 309 310 312 312 312 311 305 274 264 280 280 279 243 228 228 219 201 212 228 247 276 224 260 272 278 282 253 248 257 257 267 260 258 253 258 251 246
295 296 295 297 298 299 300 302 303 304 305 306 307 306 287 247 281 276 271 267 248 231 228 221 213 216 266 253 225 248 263 272 280 271 251 210 259 235 272 274 263 246 246 254 254
298 297 298 298 296 293 292 295 297 298 300 301 300 295 273 269 274 271 270 265 250 238 232 228 227 226 237 283 265 278 313 309 265 255 224 202 284 225 270 262 257 253 249 245 252
299 302 304 306 302 298 296 295 292 292 294 296 293 282 260 274 265 258 259 257 245 234 234 236 233 240 236 257 298 237 193 285 273 136 195 154 260 247 256 251 247 245 247 243 248
306 306 307 308 306 303 303 301 294 289 289 287 282 242 259 255 253 255 250 247 241 234 230 234 220 220 210 124 340 263 237 216 297 188 142 174 254 270 263 240 245 249 246 245 250
326 320 317 321 315 309 306 306 305 295 278 272 233 236 238 240 243 251 243 234 222 214 210 187 193 185 213 126 228 213 225 242 237 200 163 199 246 260 255 246 239 248 255 255 256
334 337 336 340 333 327 318 322 306 295 242 219 198 220 286 247 256 247 227 209 196 189 190 198 148 208 225 202 224 237 256 238 268 259 205 240 240 251 255 257 249 258 264 265 268
329 332 336 352 348 342 336 336 305 273 298 255 257 257 259 266 253 246 218 188 183 209 173 252 218 227 220 208 227 248 259 264 278 270 198 251 252 254 240 248 251 243 256 262 265
313 320 324 346 353 1 351 353 319 294 257 273 255 247 243 240 239 242 214 205 197 200 206 221 222 219 225 239 261 248 248 258 255 291 238 283 267 251 244 244 249 255 259 264 262
299 306 311 333 336 350 357 339 333 325 303 263 224 220 207 190 267 228 225 220 213 223 206 247 235 221 194 211 208 262 224 256 270 281 274 136 290 220 239 236 238 247 255 259 265
284 289 295 307 315 341 340 337 324 332 301 257 186 193 173 185 141 194 193 202 216 201 146 233 212 207 226 233 197 263 210 246 228 241 316 176 283 209 192 235 243 244 252 264 268
283 277 275 282 289 310 343 337 317 34 257 282 148 175 137 221 181 99 159 200 57 300 249 249 233 229 209 157 190 130 123 4 27 59 264 180 210 180 193 218 230 244 254 260 260
285 269 254 264 270 276 277 83 322 207 299 229 235 153 304 197 224 187 166 169 186 219 240 262 222 206 158 194 313 154 85 304 314 359 258 183 220 254 284 230 214 225 240 237 244
284 272 273 266 255 262 237 65 224 194 226 350 41 133 188 167 232 186 177 257 258 268 312 258 285 154 189 204 190 196 184 176 214 264 278 120 249 253 226 236 240 236 240 239 241
275 275 266 273 252 243 194 182 222 187 228 5 346 297 235 241 215 155 202 204 210 187 198 207 260 12 170 106 148 176 176 215 339 94 334 262 272 291 292 276 273 246 240 234 232
274 277 276 279 253 211 189 238 227 196 353 345 261 201 259 286 262 239 190 198 230 190 210 240 269 207 156 128 1 174 170 86 247 211 243 270 258 270 284 280 280 244 216 209 204
268 266 249 233 206 172 226 233 258 239 255 240 252 242 246 272 272 279 269 313 330 5 253 352 281 271 109 196 180 127 253 230 262 193 247 262 273 220 193 236 308 245 228 216 221
232 236 196 190 169 206 237 214 231 251 251 261 267 243 255 262 263 253 242 221 191 131 280 152 307 292 258 260 240 198 214 211 238 257 231 267 266 270 313 325 330 304 246 206 213
226 236 217 210 221 224 226 256 242 259 237 222 246 231 229 246 260 244 246 253 256 268 198 151 208 250 293 288 218 206 209 219 243 224 246 263 264 274 281 284 288 274 259 288 297
256 252 195 221 230 242 248 250 251 253 254 242 255 257 255 253 252 258 254 245 233 240 216 174 199 213 241 239 273 272 269 260 251 252 255 245 259 265 263 257 267 265 259 265 274
215 251 242 223 236 233 243 266 261 263 238 238 227 232 244 258 248 246 251 260 260 245 185 188 234 218 229 242 252 250 255 247 243 240 241 253 249 256 261 274 264 265 267 267 269
265 288 332 306 315 308 238 243 262 273 276 270 261 285 297 270 272 272 283 254 241 203 215 201 236 228 239 230 235 244 248 250 250 248 252 252 256 250 261 265 271 270 277 280 278
247 269 274 268 293 284 258 272 283 319 247 356 336 316 297 291 304 305 294 280 281 290 259 220 221 232 249 231 235 241 233 237 242 245 245 245 239 245 260 259 261 271 277 276 276